Regional Weather Roundup
Issued by NWS

Home | Current Version | Previous Version | Text Only | Print | Product List | Glossary Off
Versions: 1 2 3 4 5 6 7 8 9 10 11 12 13 14 15 16 17 18 19 20 21 22 23 24 25 26 27 28 29 30 31 32 33 34 35 36 37 38 39 40 41 42 43 44 45 46 47 48 49 50

000
ASUS45 KBOU 011107
RWRCO

WEATHER ROUNDUP FOR COLORADO
NATIONAL WEATHER SERVICE DENVER/BOULDER CO
400 AM MST SUN MAR 01 2015

NOTE: "FAIR" INDICATES FEW OR NO CLOUDS BELOW 12000 FEET WITH NO
SIGNIFICANT WEATHER AND/OR OBSTRUCTIONS TO VISIBILITY.

COZ001>005-013-030-031-011200-
...NORTHWEST COLORADO...

CITY           SKY/WX    TMP DP  RH WIND       PRES   REMARKS
CRAIG          CLOUDY    20  17  88 W8        30.03R WCI  10
HAYDEN         CLOUDY    19  16  86 NW9       30.00R WCI   9
MEEKER         CLOUDY    26  23  88 CALM      29.99R
MOUNT WERNER   NOT AVBL
STEAMBOAT SPGS CLOUDY    21  19  92 CALM      29.99R
WALDEN         CLOUDY    10   5  79 N9        29.94R WCI  -2
$$

COZ006>008-011-011200-
...WEST CENTRAL VALLEYS...

CITY           SKY/WX    TMP DP  RH WIND       PRES   REMARKS
GRAND JUNCTION CLOUDY    30  29  96 E6        30.00R WCI  24
MONTROSE       LGT SNOW  29  27  92 S6        30.03R FOG     WCI  23
EAGLE          CLOUDY    27  25  93 E9        29.99R WCI  17
RIFLE          MOCLDY    30  25  81 NE3       29.99R
DELTA          MOCLDY    33  32  95 CALM      30.02R
NUCLA          PTCLDY    30  30 100 E5        30.04S WCI  25
$$

COZ017>023-064>068-011200-
...SOUTHWEST COLORADO...

CITY           SKY/WX    TMP DP  RH WIND       PRES   REMARKS
DURANGO        FOG       29  28  96 NE3       30.01S VSB 1/2
CORTEZ         CLOUDY    28  27  96 E5        30.00S WCI  23
PAGOSA SPRINGS CLOUDY    31  31 100 CALM      30.02S FOG
TELLURIDE      FLURRIES  26  22  84 CALM      30.01S
WOLF CREEK PAS CLOUDY    16  16 100 SW17G24   30.01S WCI   0
$$

COZ009-010-012-014-032>034-037-058>063-011200-
...CENTRAL COLORADO...

CITY           SKY/WX    TMP DP  RH WIND       PRES   REMARKS
ASPEN          LGT SNOW  26  25  96 CALM      29.96R FOG
BUENA VISTA    CLOUDY    18  15  89 CALM      29.96R
COPPER MTN     LGT SNOW  18  12  79 W10       29.92R VSB 1   WCI   6
BERTHOUD PASS  SNOW       9   3  78 W24G33    29.88S VSB 1/2 WCI -12
COTTONWOOD PAS FLURRIES  25  18  74 CALM      29.94R
GUNNISON       PTCLDY    16  14  93 NW5       30.02R WCI   9
KREMMLING      FLURRIES  23  21  93 CALM      29.96R
LEADVILLE      LGT SNOW  16  13  88 NE5       29.93R FOG     WCI   9
SALIDA         PTCLDY    15  12  88 CALM      30.05R
SUNLIGHT       LGT SNOW  21  19  93 CALM        N/A
WILKERSON PASS PTCLDY    14  12  92 SW9       29.95R WCI   2
$$

COZ069>075-011200-
...SAN LUIS VALLEY/SANGRE DE CRISTO MOUNTAINS...

CITY           SKY/WX    TMP DP  RH WIND       PRES   REMARKS
ALAMOSA        MOCLDY    10   8  92 SW5       30.01R FOG     WCI   2
LA VETA PASS   MOCLDY    23  21  93 S12G31    29.94R WCI  12
SAGUACHE       PTCLDY    16  12  86 NW8       30.01S WCI   5
$$

COZ035-036-038>040-011200-
...NORTHERN COLORADO FRONT RANGE...

CITY           SKY/WX    TMP DP  RH WIND       PRES   REMARKS
DENVER INTL AP CLOUDY    12   8  84 SW6       30.07R WCI   3
DMNS CITY PARK   N/A     15  10  81 SW3       30.07S
AURORA         MOCLDY    10   8  89 SW3       30.06R
FRONT RANGE AP NOT AVBL
ERIE MUNI ARPT LGT SNOW  16  15  94 CALM      30.09R
BOULDER MUN AP LGT SNOW  19  19 100 CALM      30.08R
CENTENNIAL     MOCLDY    10   6  84 NW5       30.03R FOG     WCI   2
BROOMFIELD     LGT SNOW  21  19  93 N8        30.06R WCI  12
FORT COLLINS   MOCLDY    19  14  79 N6        30.10R WCI  11
LONGMONT       CLOUDY    20  18  89 CALM      30.11R
$$

COZ041-046-047-076>085-087-088-011200-
...PIKES PEAK/PALMER DIVIDE AND SOUTHERN FOOTHILLS...

CITY           SKY/WX    TMP DP  RH WIND       PRES   REMARKS
COLO. SPRINGS  MOCLDY    13   8  81 NE3       30.00R
A. F. ACADEMY  FRZ DRZL   9   6  88 NE5       29.97R VSB 3/4 WCI   1
ELLICOTT       NOT AVBL
FALCON         PTCLDY     8   6  90 N3        29.97R FOG
FORT CARSON    PTCLDY    11   9  89 CALM      30.00R
LIMON          PTCLDY     1  -2  87 NW5       30.06R FOG     WCI  -9
MONUMENT HILL  PTCLDY     5   3  92 W6        29.97R WCI  -6
TRINIDAD       CLOUDY    15  12  88 SW3       30.03R
$$

COZ042>045-048>051-090-091-011200-
...NORTHEAST COLORADO...

CITY           SKY/WX    TMP DP  RH WIND       PRES   REMARKS
GREELEY ARPT   PTCLDY    18   9  68 CALM      30.10R
AKRON          CLOUDY    17  15  92 N5        30.08R WCI  10
BURLINGTON     CLOUDY    19  14  81 W5        30.11R WCI  12
WRAY           CLOUDY    17  15  91 N5        30.15R WCI  10
STERLING       PTCLDY    18  14  86 CALM      30.13R
HOLYOKE        NOT AVBL
FORT MORGAN    PTCLDY    15  12  88 N8        30.11R WCI   4
$$

COZ086-089-092>099-011200-
...SOUTHEAST COLORADO...

CITY           SKY/WX    TMP DP  RH WIND       PRES   REMARKS
PUEBLO         PTCLDY    11   8  88 CALM      30.08R
LA JUNTA       CLEAR     12   9  87 NW6       30.12R WCI   3
LAMAR          CLOUDY    19  17  92 NW3       30.12S FOG
SPRINGFIELD      N/A     16  13  88 CALM      30.09R
$$


USA.gov is the U.S. government's official web portal to all federal, state and local government web resources and services.